SL-23 R/B, 34112

Orbit data source: Space-Track

SL-23 R/B, 34112 is space debris in HEO originally from a launch on Thu, 26 Feb 2009 UTC launched from the Tyuratam Missile And Space Complex (TTMTR). Debris objects in space refer to the collection of defunct objects orbiting the Earth. Examples of debris include non-operational satellites, rocket bodies, and fragments generated from explosions, collisions, or faulty payload assembly.

Loading next visibility...
Identifier
34112, 2009-009B
Orbit
HEO
Last TLE update
1 day ago
Origin
Manufacturer
RKKE
Mission
Spacecraft
Bus & Motor
BLOK DM2, 11D58M
Mass
2,540 kg wet, 2,540 kg dry
Launch date (UTC)
2009-02-26 (16 years ago)
Launch vehicle
Unknown
Launch site
Tyuratam Missile And Space Complex (TTMTR)
Object type
Payload
Rocket body
Debris
Shape & HBR
Cyl + 1 Nozzle, 5.9 m
Radar Cross Section
22.521 m², Large (>1 m²)

Expand to show TLE details & history

TLE from 1 day ago
0 SL-23 R/B
1 34112U 09009B   25128.28433023 -.00000283  00000-0  00000-0 0  9996
2 34112  35.2513  10.6844 6897409  23.4846 105.0852  2.20449283130431
Epoch: 2025-05-08T06:49Z
Definitive object data (Epoch: 2025-05-08T06:49:26.131Z)
Latitude
-1.61269°
Longitude
-135.73518°
Altitude
30,458.086 km
Speed
2.379 km/s
True Right ascension
12h 51m 55s
True Declination
-1° 36' 39"
Sunlit
Object was in daylight at TLE epoch
Visualization TLE readout
Latitude
-24.61166°
Longitude
-97.97201°
Altitude
29,806.315 km
Speed
2.46 km/s
Apparent Right ascension
15h 03m 08s
Apparent Declination
-33° 35' 47"
Sunlit
Object is in full shadow
Visualization observer readout
Local Sidereal Time
17:25:02
Azimuth
209.35° SW
Elevation
9.509°
Doppler factor
1
Orbital elements
Apogee altitude
35,764.687 km
Perigee altitude
1,359.851 km
Semi-major axis
24,940.406 km
Eccentricity
0.6897409
Inclination
35.2513°
RAAN
10.6844°
Arg. of periapsis
23.4846°
True anomaly
159.22106°
Mean anomaly
105.0852°
Eccentric anomaly
133.67041°
Mean motion
0.55105 °/min
BSTAR
Unknown
Orbital period
653.3 mins
Loading maneuver chart data...
Loading SW <> Apogee altitude chart data...
Loading historical data...
Loading historical data...
Loading historical data...
Loading historical data...
Loading historical data...
Loading historical data...
Loading historical data...
Other satellites on launch #9 in the year 2009 (2009-02-26 UTC)

SL-23 R/B Visibility forecast

Observer location: undefined°, undefined°

Span
Click to sort rows by Start time (UTC) header in descending order
Start Az.
Max El. time (UTC)
Max El. Az.
Max El.
End time (UTC)
End Az.
501 mins2025-05-09 23:23:45.051Z268.958° W2025-05-09 23:37:45.051Z178.549° S44.279°2025-05-10 07:44:45.051Z179.333° S
|